X  Close Rain tomorrow evening.
Conditions Temperature Feels Precipitation Wind Wind Direction UV index Pressure
05:00 partly-cloudy-night Mostly Cloudy 72° 0 in 1% 5-16 mph SSW SSW - 1011,20
06:00 cloudy Overcast 72° 0 in 1% 5-17 mph SSW SSW - 1011,10
07:00 cloudy Overcast 73° 0 in 2% 5-18 mph SSW SSW - 1011,30
08:00 cloudy Humid and Overcast 74° 0 in 1% 6-19 mph SW SW - 1012,50
09:00 cloudy Humid and Overcast 74° - 7-17 mph SW SW uv-1 1013,60
10:00 cloudy Humid and Overcast 76° 0 in 2% 7-16 mph SW SW uv-3 1014,00
11:00 cloudy Humid and Overcast 78° - 7-14 mph SW SW uv-4 1014,10
12:00 partly-cloudy-day Humid and Mostly Cloudy 81° 86° - 7-13 mph SW SW uv-6 1013,20
13:00 partly-cloudy-day Humid and Partly Cloudy 83° 90° 0 in 2% 7-12 mph SW SW uv-8 1012,40
14:00 partly-cloudy-day Humid and Mostly Cloudy 86° 93° 0 in 3% 7-11 mph SW SW uv-7 1011,20
15:00 clear-day Humid 88° 95° 0 in 4% 7-10 mph SW SW uv-8 1010,30
16:00 clear-day Humid 89° 97° 0.01 in 6% 7-10 mph SW SW uv-5 1009,40
17:00 clear-day Clear 89° 96° 0.01 in 6% 7-10 mph SSW SSW uv-3 1008,70
18:00 clear-day Clear 89° 95° 0.01 in 7% 7-10 mph SSW SSW uv-1 1008,60
19:00 clear-day Clear 87° 94° 0.01 in 9% 7-11 mph SSW SSW - 1008,20
20:00 partly-cloudy-night Humid and Partly Cloudy 85° 91° 0 in 5% 6-11 mph SSW SSW - 1008,80
21:00 partly-cloudy-night Partly Cloudy 83° 87° 0 in 2% 6-12 mph SSW SSW - 1010,00
22:00 partly-cloudy-night Mostly Cloudy 80° 84° 0 in 1% 6-13 mph SSW SSW - 1010,90
23:00 partly-cloudy-night Mostly Cloudy 79° - 6-13 mph SW SW - 1011,10
00:00 partly-cloudy-night Mostly Cloudy 77° - 6-13 mph SW SW - 1010,80
01:00 partly-cloudy-night Mostly Cloudy 76° - 6-13 mph SW SW - 1010,80
02:00 partly-cloudy-night Mostly Cloudy 75° - 6-14 mph SW SW - 1010,60
03:00 partly-cloudy-night Mostly Cloudy 74° 0 in 1% 6-14 mph SW SW - 1010,10
04:00 cloudy Overcast 73° 0 in 2% 6-14 mph SW SW - 1009,90
05:00 cloudy Overcast 72° 0 in 2% 6-14 mph SW SW - 1009,90
06:00 cloudy Overcast 71° 0 in 2% 6-14 mph SW SW - 1010,20
07:00 cloudy Overcast 71° 0 in 2% 6-14 mph SW SW - 1010,60
08:00 cloudy Overcast 72° 0 in 2% 5-13 mph South South - 1011,20
09:00 cloudy Overcast 74° 0 in 2% 5-12 mph North North uv-1 1011,90
10:00 cloudy Overcast 76° 0 in 2% 4-10 mph WNW WNW uv-3 1012,30
11:00 cloudy Overcast 80° 83° 0 in 1% 4-8 mph WSW WSW uv-4 1012,10
12:00 cloudy Humid and Overcast 84° 89° - 3-5 mph North North uv-5 1011,80
13:00 cloudy Humid and Overcast 86° 93° 0 in 2% 3-4 mph NNW NNW uv-5 1010,90
14:00 cloudy Overcast 88° 94° 0.01 in 5% 4-4 mph North North uv-5 1010,00
15:00 cloudy Overcast 87° 93° 0.03 in 8% 6-6 mph North North uv-5 1009,30
16:00 cloudy Overcast 85° 91° 0.05 in 13% 7-7 mph North North uv-4 1008,90
17:00 cloudy Overcast 83° 87° 0.04 in 15% 7-9 mph NE NE uv-2 1008,80
18:00 cloudy Overcast 80° 0.03 in 23% 8-10 mph East Easterly uv-1 1009,10
19:00 rain Possible Light Rain 77° 0.03 in 30% 8-12 mph East Easterly - 1009,60
20:00 rain Possible Light Rain 75° 0.07 in 42% 8-15 mph ENE ENE - 1010,80
21:00 rain Rain 73° 0.25 in 60% 8-18 mph NNE NNE - 1012,40
22:00 rain Heavy Rain 71° 0.4 in 65% 9-21 mph NNW NNW - 1013,50
23:00 rain Rain 70° 0.26 in 63% 9-22 mph North North - 1013,70
00:00 rain Possible Light Rain 69° 0.07 in 48% 8-21 mph NE NE - 1013,50
01:00 cloudy Overcast 68° 0.01 in 18% 8-20 mph ENE ENE - 1013,30
02:00 cloudy Overcast 67° 0 in 10% 7-16 mph NE NE - 1013,20
03:00 cloudy Overcast 66° 0.01 in 17% 6-12 mph NE NE - 1013,00
04:00 cloudy Overcast 65° 0.02 in 23% 6-11 mph NNE NNE - 1013,20
05:00 cloudy Overcast 64° 0.01 in 17% 7-15 mph NNE NNE - 1013,90